Regional Weather Roundup
Issued by NWS Midland/Odessa, TX

Skip options and go directly to product.
Home | Oldest Version | Previous Version | Current Version | All | Text Only | Save Text | Print | Product List | Glossary Off

Skip product version selection by date and time.   

537
ASUS44 KMAF 220710
RWRMAF
MIDLAND AREA WEATHER ROUNDUP
NATIONAL WEATHER SERVICE MIDLAND TX
200 AM CDT FRI AUG 22 2014

...IN SOUTHWEST TEXAS AND SOUTHEAST NEW MEXICO...

CITY           SKY/WX    TMP DP  RH WIND       PRES   REMARKS
ALPINE         PTCLDY    72  61  68 S6        30.19S
ANDREWS        FAIR      77  65  66 S7        30.05S
ARTESIA        PTCLDY    79  59  50 SE13      30.03S
BIG SPRING     CLEAR     82  63  53 SE9       30.04S
CARLSBAD       CLEAR     79  59  50 S10       30.01S
DRYDEN           N/A     79  65  62 NE6       30.00S
FORT STOCKTON  PTCLDY    78  64  61 S13       30.03S
GUAD PASS      PTCLDY    73  55  53 S12       30.20S
HOBBS          PTCLDY    75  63  64 S13       30.08S
MARFA          PTCLDY    66  63  88 W3        30.20R
MIDLAND AIRPK  PTCLDY    82  65  56 S8        30.03S
MIDLAND INTL   PTCLDY    78  66  66 S7        30.02F
ODESSA         PTCLDY    78  65  63 S8        30.03F
PECOS          PTCLDY    76  65  69 E3        30.00S
PRESIDIO       FAIR      77  65  66 N10       30.01F
SEMINOLE       PTCLDY    78  62  57 S8        30.07S
SNYDER         CLEAR     81  64  57 S8        30.02S
WINK           PTCLDY    79  64  60 SE9       30.01S
$$
...OTHER STATIONS IN TEXAS...

CITY           SKY/WX    TMP DP  RH WIND       PRES   REMARKS
ABILENE        CLEAR     83  62  49 S10       30.00S
AMARILLO       CLEAR     79  62  56 S14       30.02F
AUSTIN         MOCLDY    82  74  76 S17G28    30.03F
BROWNSVILLE    CLEAR     81  78  91 SE7       30.06F
CORPUS CHRISTI PTCLDY    83  78  85 S16       30.04S
DALLAS FTW     CLEAR     86  68  54 S18       29.97S
DEL RIO        CLEAR     88  63  43 SE15      29.97R
EL PASO        MOCLDY    79  55  43 W14       30.06R
HOUSTON INT    PTCLDY    81  76  84 S6        30.05S
LUBBOCK        PTCLDY    77  60  55 S9        30.04S
SAN ANGELO     CLEAR     79  63  57 S8        30.01S
SAN ANTONIO    MOCLDY    82  75  79 S14G22    30.05S
WACO           CLEAR     82  73  74 S20G26    30.01R
WICHITA FALLS  NOT AVBL
$$
...OTHER LOCATIONS IN NEW MEXICO...

CITY           SKY/WX    TMP DP  RH WIND       PRES   REMARKS
ALAMAGORDO     CLOUDY    79  54  41 S12       30.07F
ALBUQUERQUE    MOCLDY    72  47  40 S9        30.13R
CANNON AFB     PTCLDY    76  60  56 SW18G25   30.06F
CLOVIS           N/A     75  57  53 SW18G24   30.08F
HOLLOMAN AFB   CLOUDY    81  54  39 S13G21    30.05S
ROSWELL        MOCLDY    80  58  46 S12       30.03R
RUIDOSO        MOCLDY    68  48  49 SW12      30.26S
SANTA FE       MOCLDY    65  36  34 NW3       30.18S
TRUTH OR CONSE MOCLDY    75  51  43 NW14      30.09S
TUCUMCARI      CLEAR     80  52  37 S15       30.02R
$$

USA.gov is the U.S. government's official web portal to all federal, state and local government web resources and services.